Wind_Speed
34 35 35 36 37 37 38 38 38 38 39 40 40 41 41 41 41 42 41 42 41 41 41 41 41 41 40 40 40 40 40 40 40 40 40 40 39 39 38 38 38 38 37
35 36 36 37 37 38 38 38 39 39 40 41 42 42 42 43 42 43 43 43 43 42 42 42 42 43 42 42 42 42 42 42 42 42 42 42 42 41 40 40 40 40 40
36 37 37 38 38 38 39 39 40 41 41 42 42 43 43 43 43 43 44 45 45 44 44 44 44 45 45 45 44 44 44 43 44 44 44 44 43 43 43 42 42 42 42
36 37 37 38 38 39 40 40 41 41 41 41 42 42 43 44 44 45 45 46 46 45 45 46 46 46 46 46 46 46 46 46 46 46 46 46 46 45 45 45 45 45 45
36 37 37 38 39 39 40 41 41 42 42 42 42 43 44 45 45 45 46 46 47 47 47 47 47 47 47 47 48 48 48 47 48 48 48 48 48 47 47 47 47 47 47
36 37 37 38 39 39 40 41 41 42 42 42 42 43 43 45 46 46 47 47 47 48 48 48 48 48 47 48 48 48 49 49 49 49 49 49 49 49 49 49 49 49 48
36 36 37 37 37 38 39 39 39 40 41 41 42 42 43 44 45 46 47 47 48 49 49 48 47 47 47 48 49 50 49 49 50 50 50 50 51 51 51 51 50 50 49
36 36 37 37 37 37 38 39 39 40 41 41 42 42 42 43 44 46 46 47 47 47 48 47 47 48 48 49 50 50 49 49 49 49 49 49 50 50 50 50 50 50 50
36 36 36 36 36 37 38 39 40 41 41 41 42 43 43 43 44 45 46 45 45 45 46 46 47 49 49 49 49 48 47 47 47 47 47 48 49 48 49 49 50 50 50
36 35 35 36 37 37 38 39 39 40 41 41 42 42 43 44 45 45 44 44 44 44 45 46 47 47 48 49 48 47 47 47 47 47 48 48 48 47 47 48 48 49 50
36 36 36 37 37 38 38 39 39 40 40 40 41 42 43 44 44 44 43 42 43 45 45 46 47 48 47 46 46 47 48 49 49 49 49 48 47 46 47 48 49 49 49
36 36 37 37 38 39 39 40 40 40 39 40 41 42 42 41 41 41 42 42 42 43 44 45 46 47 47 47 47 47 48 48 49 49 49 49 48 48 48 48 49 50 50
36 36 37 38 39 39 40 40 40 40 40 39 40 40 40 39 39 39 40 40 40 40 41 41 43 43 44 45 45 46 47 47 47 48 48 49 49 48 48 49 49 50 50
36 37 37 38 38 39 39 40 39 39 38 38 38 37 37 37 38 38 38 38 38 38 38 38 38 39 40 42 43 44 44 45 46 46 47 48 48 49 50 50 50 49 49
37 37 37 37 38 38 38 38 37 36 36 36 35 35 35 36 37 37 37 37 36 37 36 36 37 37 38 39 40 41 41 42 43 44 45 46 47 48 49 49 49 48 48
37 37 37 37 37 37 37 36 35 34 34 34 34 34 34 35 35 36 36 36 35 35 34 34 36 36 37 37 38 39 39 40 41 42 43 45 46 46 46 47 46 46 47
37 36 36 36 36 35 35 34 34 34 33 33 33 33 33 33 34 34 34 34 34 33 34 33 34 35 35 35 35 36 37 38 40 41 41 42 43 43 43 43 43 43 42
36 35 35 35 34 34 33 33 33 32 32 31 32 32 31 31 32 32 31 32 32 32 32 32 33 34 33 33 33 34 35 37 38 39 39 39 40 40 40 40 39 39 38
35 35 34 33 33 33 32 32 31 31 30 30 30 31 31 30 30 29 29 30 31 31 32 32 32 32 32 32 32 32 33 34 36 36 36 37 37 37 37 36 37 37 36
34 33 33 33 33 32 32 31 30 29 29 29 29 29 29 29 30 29 29 30 30 30 30 30 31 30 30 30 30 31 32 32 33 34 34 34 34 33 34 34 35 35 34
32 31 31 32 32 32 31 31 30 29 28 28 28 28 28 29 29 29 29 29 28 28 28 28 28 28 28 28 29 29 30 30 31 32 32 31 31 31 32 33 33 32 31
30 30 31 31 31 31 30 29 28 28 27 27 27 27 28 28 29 28 28 27 27 26 26 26 26 26 26 27 27 27 29 29 29 29 29 29 28 30 31 31 31 30 30
28 28 29 29 29 28 28 27 27 27 27 26 27 28 28 28 28 28 26 25 24 24 25 25 24 24 24 25 26 27 27 28 27 27 26 26 27 29 29 30 29 28 28
27 28 28 28 28 27 26 26 26 26 26 26 27 28 28 28 27 26 25 24 24 24 23 23 23 23 24 25 25 26 25 26 25 25 25 26 27 27 27 27 26 25 25
27 28 28 27 26 26 25 25 25 25 25 25 26 27 26 25 25 25 24 23 23 22 22 22 22 22 23 24 25 24 24 24 24 25 25 26 26 26 25 26 26 25 24
27 27 27 26 25 24 24 24 24 24 25 25 25 25 25 25 24 23 23 23 21 21 22 22 22 22 23 24 24 24 23 24 25 25 24 24 24 24 24 24 24 24 23
Wind_Direction
278 278 278 279 279 278 277 277 277 277 277 277 276 274 272 271 271 271 272 273 272 271 271 271 271 272 273 274 275 275 276 276 276 276 276 276 278 279 279 278 278 279 279
279 280 280 280 280 279 278 278 278 277 277 277 277 275 274 272 271 271 271 272 272 272 270 270 270 272 273 273 274 275 275 276 276 276 275 276 276 277 278 278 277 278 279
279 280 281 281 280 280 279 279 279 279 278 277 277 276 274 273 272 271 271 271 272 272 271 270 270 271 272 273 274 274 275 275 276 275 274 275 276 276 277 278 277 277 277
280 281 282 282 281 281 281 281 280 280 279 278 277 277 275 274 274 273 272 272 271 271 271 271 271 272 272 273 273 274 274 275 276 276 275 275 275 276 276 277 277 277 277
281 283 283 282 282 282 282 282 282 281 281 279 278 277 276 275 274 273 272 272 271 270 271 270 271 272 272 273 274 274 275 276 276 276 275 275 275 275 275 276 275 276 276
282 284 284 283 283 283 283 283 283 282 282 281 279 278 277 276 276 274 273 272 271 270 271 270 270 271 271 271 273 274 274 275 275 276 275 275 275 275 274 275 275 275 275
283 284 284 284 285 285 285 285 285 285 284 283 282 280 279 278 277 275 274 273 271 270 270 270 269 271 271 272 273 274 275 275 275 275 276 276 275 275 274 274 276 274 274
283 285 285 285 285 286 286 286 286 286 285 284 284 284 282 280 278 277 276 274 272 271 270 270 270 271 272 273 274 274 274 275 276 276 276 276 276 276 275 274 275 275 275
284 285 285 286 286 286 287 287 287 287 287 287 287 287 285 283 280 277 276 274 272 271 271 271 271 272 273 273 274 273 274 275 275 276 277 278 278 277 276 275 275 275 276
285 285 285 286 286 287 288 289 289 289 288 288 288 288 287 286 283 279 276 275 273 272 273 272 273 273 273 273 272 272 273 274 274 276 278 278 279 279 278 277 277 276 276
284 284 285 286 287 287 289 291 290 290 291 290 289 289 289 287 285 282 278 275 274 273 274 273 273 272 273 273 272 273 273 274 275 276 277 278 279 279 280 279 279 278 277
283 283 285 286 288 288 289 290 291 291 291 291 291 291 290 287 285 284 281 278 276 275 275 274 274 274 273 274 275 274 274 275 275 275 276 277 279 279 280 280 279 278 278
283 284 286 287 288 289 289 290 290 291 292 292 292 292 291 288 286 285 284 281 279 278 277 276 275 275 274 275 276 275 275 276 276 277 277 278 279 279 280 280 280 279 279
284 285 287 288 289 289 290 290 291 291 292 293 293 292 291 289 287 286 286 285 282 279 278 276 275 276 277 277 277 277 278 278 279 279 279 279 280 281 280 280 281 280 279
285 287 288 288 289 290 291 291 292 291 292 292 293 293 292 290 288 286 287 286 284 282 279 276 277 278 279 278 278 279 280 281 281 281 280 281 282 281 281 281 281 281 281
286 287 287 289 290 291 291 292 291 291 292 293 293 293 292 291 290 289 287 286 285 285 282 280 279 279 280 280 280 280 281 282 283 283 284 285 285 283 283 282 282 282 282
286 287 287 288 290 291 291 291 291 291 293 294 294 293 293 292 292 291 287 285 284 284 282 281 279 279 280 280 281 282 283 284 284 285 287 288 287 286 284 283 282 281 282
286 286 286 288 289 290 291 291 291 292 293 293 295 294 293 293 293 292 288 286 286 285 283 283 282 280 282 281 283 285 287 288 287 288 289 290 289 288 286 285 284 284 283
286 286 286 287 288 289 290 290 291 292 293 295 296 295 293 294 295 292 290 288 288 286 284 284 284 283 285 284 285 287 290 290 292 292 292 292 292 292 290 289 289 286 283
286 286 285 286 288 289 290 290 290 291 293 294 296 297 296 296 295 293 292 291 289 287 286 285 285 285 287 286 288 290 291 292 294 294 294 294 294 293 293 292 291 288 285
286 286 286 286 288 289 289 289 289 290 292 294 296 297 297 298 297 296 295 294 291 289 288 289 288 287 289 289 290 291 293 295 297 296 295 294 295 296 298 297 294 291 288
286 286 287 286 288 289 289 288 289 290 291 293 295 296 298 300 298 298 299 296 293 290 290 291 290 290 291 292 292 293 296 296 297 298 297 295 295 299 301 299 296 292 291
287 289 288 289 290 290 290 288 288 289 291 293 294 296 298 301 300 299 299 298 296 292 291 294 294 295 295 295 295 296 299 301 300 299 297 297 299 301 301 301 300 297 294
288 289 289 290 290 289 289 288 287 286 289 291 293 295 297 299 298 298 297 297 299 297 296 296 297 296 297 297 299 301 302 303 304 303 302 303 305 305 304 305 305 302 300
288 288 288 289 289 289 288 287 286 286 288 290 292 295 297 298 298 297 296 297 300 300 300 300 299 301 302 303 303 304 305 305 306 305 304 305 306 307 306 306 305 302 301
289 288 287 287 287 288 288 287 287 288 288 291 294 295 296 297 297 297 298 299 298 300 301 302 302 303 303 305 305 305 306 307 307 307 306 307 307 306 307 307 306 304 303
Height
5795 5794 5794 5793 5792 5791 5790 5789 5788 5787 5787 5786 5785 5785 5785 5785 5786 5786 5787 5787 5787 5787 5787 5787 5787 5787 5787 5787 5787 5787 5786 5786 5786 5785 5785 5785 5784 5784 5783 5783 5782 5781 5780
5787 5786 5785 5784 5783 5782 5781 5780 5779 5778 5777 5776 5776 5775 5775 5775 5775 5776 5776 5777 5777 5777 5778 5778 5778 5778 5778 5778 5777 5777 5777 5776 5776 5776 5775 5775 5775 5774 5774 5773 5773 5772 5771
5779 5778 5777 5775 5774 5773 5772 5770 5769 5768 5767 5766 5766 5765 5764 5764 5765 5765 5765 5766 5766 5767 5767 5767 5767 5767 5767 5767 5767 5767 5766 5766 5766 5765 5764 5764 5764 5763 5763 5763 5762 5762 5761
5771 5770 5768 5766 5765 5763 5762 5761 5759 5758 5757 5756 5755 5754 5754 5754 5754 5754 5754 5755 5755 5756 5756 5756 5757 5757 5756 5756 5756 5756 5756 5755 5754 5754 5753 5753 5753 5752 5752 5752 5752 5751 5751
5762 5761 5759 5757 5756 5754 5752 5751 5749 5748 5746 5745 5744 5744 5743 5742 5742 5742 5742 5742 5743 5744 5745 5745 5745 5745 5745 5744 5744 5744 5744 5743 5742 5741 5741 5741 5740 5740 5740 5740 5740 5739 5739
5754 5752 5750 5748 5746 5745 5742 5741 5739 5737 5736 5734 5733 5733 5732 5731 5730 5730 5730 5730 5731 5732 5732 5732 5732 5732 5733 5733 5732 5732 5731 5731 5730 5729 5728 5727 5727 5727 5727 5727 5726 5726 5726
5745 5743 5741 5739 5737 5735 5733 5731 5729 5727 5725 5723 5722 5722 5721 5719 5718 5717 5717 5717 5718 5719 5719 5719 5719 5719 5720 5720 5719 5719 5718 5717 5716 5715 5714 5714 5713 5713 5713 5713 5712 5712 5712
5737 5735 5733 5730 5728 5726 5724 5722 5720 5718 5715 5713 5711 5710 5709 5709 5706 5705 5705 5705 5705 5706 5706 5706 5706 5707 5707 5707 5706 5706 5705 5704 5703 5702 5701 5700 5699 5699 5699 5699 5698 5698 5698
5728 5726 5724 5722 5720 5718 5715 5713 5710 5708 5705 5703 5700 5698 5696 5695 5694 5695 5693 5693 5692 5692 5693 5693 5693 5693 5693 5693 5693 5692 5692 5691 5690 5689 5688 5687 5687 5686 5685 5685 5685 5685 5684
5719 5717 5715 5713 5711 5709 5706 5704 5701 5698 5695 5693 5690 5687 5684 5682 5680 5680 5682 5681 5680 5680 5680 5680 5679 5680 5680 5680 5680 5680 5679 5679 5678 5677 5676 5675 5674 5673 5673 5672 5672 5671 5670
5710 5708 5706 5704 5702 5700 5697 5694 5691 5688 5685 5682 5679 5676 5673 5670 5667 5666 5668 5669 5669 5668 5667 5667 5666 5666 5666 5666 5666 5666 5666 5666 5665 5665 5664 5663 5662 5661 5660 5659 5659 5658 5657
5701 5699 5697 5695 5693 5690 5687 5685 5682 5678 5675 5672 5669 5665 5662 5659 5657 5654 5655 5656 5656 5656 5655 5654 5653 5653 5654 5654 5654 5654 5653 5653 5653 5652 5651 5650 5650 5649 5648 5647 5645 5644 5643
5692 5690 5687 5685 5683 5680 5677 5675 5672 5668 5665 5662 5659 5655 5652 5649 5646 5644 5643 5644 5645 5645 5644 5643 5642 5642 5642 5642 5641 5641 5641 5640 5640 5639 5638 5637 5637 5636 5635 5633 5632 5631 5629
5682 5680 5678 5675 5673 5670 5667 5665 5662 5659 5656 5652 5649 5646 5643 5640 5637 5635 5634 5633 5633 5634 5634 5633 5632 5632 5631 5631 5630 5629 5629 5628 5627 5626 5626 5624 5623 5622 5621 5620 5618 5616 5615
5673 5671 5668 5665 5663 5660 5657 5655 5652 5649 5646 5643 5640 5637 5634 5631 5628 5626 5624 5623 5622 5623 5625 5624 5623 5622 5621 5620 5620 5619 5618 5617 5616 5615 5613 5612 5610 5608 5607 5605 5604 5602 5601
5663 5661 5658 5656 5653 5651 5648 5645 5643 5640 5638 5635 5632 5629 5626 5623 5620 5618 5616 5614 5613 5613 5614 5615 5614 5613 5611 5610 5610 5609 5608 5607 5605 5604 5602 5600 5598 5595 5593 5592 5590 5588 5587
5653 5651 5649 5647 5644 5642 5639 5636 5634 5632 5629 5626 5624 5621 5618 5615 5613 5610 5608 5606 5605 5605 5605 5606 5605 5604 5603 5602 5601 5600 5598 5597 5596 5593 5591 5588 5586 5583 5581 5579 5577 5576 5574
5644 5641 5639 5637 5635 5633 5630 5628 5626 5623 5621 5619 5616 5613 5610 5608 5605 5603 5600 5599 5598 5597 5597 5597 5597 5596 5595 5594 5593 5592 5590 5588 5586 5584 5581 5578 5575 5572 5569 5567 5565 5563 5562
5634 5632 5630 5628 5626 5624 5622 5620 5618 5616 5614 5612 5609 5606 5603 5600 5598 5596 5594 5592 5591 5590 5589 5589 5589 5588 5587 5586 5585 5584 5582 5580 5577 5574 5571 5568 5565 5562 5559 5556 5554 5552 5551
5625 5623 5621 5619 5618 5616 5614 5612 5611 5609 5607 5605 5602 5599 5596 5594 5592 5590 5588 5586 5585 5583 5582 5582 5582 5581 5580 5578 5577 5576 5574 5572 5569 5565 5562 5559 5556 5553 5550 5547 5545 5543 5540
5616 5614 5613 5611 5609 5608 5606 5605 5603 5602 5600 5598 5596 5593 5591 5588 5586 5583 5582 5580 5578 5577 5576 5575 5574 5573 5572 5571 5570 5568 5566 5564 5562 5557 5554 5552 5549 5546 5542 5538 5535 5533 5531
5609 5607 5605 5603 5601 5599 5598 5597 5596 5595 5594 5592 5590 5588 5585 5583 5581 5578 5576 5574 5572 5571 5570 5569 5568 5566 5565 5564 5562 5560 5558 5556 5554 5551 5547 5545 5541 5538 5535 5531 5527 5525 5523
5601 5599 5597 5596 5594 5592 5591 5590 5589 5589 5588 5586 5585 5583 5581 5578 5575 5573 5571 5569 5567 5565 5564 5563 5562 5561 5559 5558 5556 5554 5551 5548 5545 5543 5540 5538 5535 5532 5528 5524 5520 5517 5515
5594 5592 5590 5589 5587 5585 5584 5583 5583 5582 5582 5580 5579 5577 5575 5572 5570 5568 5566 5565 5563 5561 5559 5558 5557 5555 5553 5551 5549 5547 5544 5542 5539 5536 5533 5531 5528 5525 5521 5518 5514 5511 5509
5588 5586 5584 5582 5581 5579 5578 5578 5577 5577 5576 5575 5573 5571 5569 5567 5565 5563 5561 5560 5558 5557 5555 5553 5552 5550 5548 5546 5543 5541 5538 5535 5533 5531 5528 5524 5522 5519 5516 5512 5509 5506 5504
5582 5579 5577 5576 5575 5574 5573 5573 5572 5572 5571 5569 5568 5566 5564 5562 5560 5558 5556 5555 5554 5552 5551 5549 5547 5545 5543 5541 5538 5535 5532 5530 5527 5525 5522 5519 5516 5513 5512 5508 5504 5501 5498